SITE: BDASw,YEAR: 2009,,,,,,
2009date,time,pzhd (cm),gw temp (C),DWT (cm),WT elev (m),,
01/01/09,0:00,285.5,14.6,73.5,1372.529,,Depth to water table:
01/01/09,0:30,285.5,14.6,73.5,1372.529,,DWT = SCL - CH - h (all values in cm)
01/01/09,1:00,285.2,14.6,73.8,1372.526,,where
01/01/09,1:30,285.4,14.6,73.6,1372.528,,SCL = sensor cable length = 490.5 cm
01/01/09,2:00,285.3,14.6,73.7,1372.527,,CH = casing height of well = 131.5 cm
01/01/09,2:30,285.7,14.6,73.3,1372.531,,h = height of water above sensor (from pzhd column)
01/01/09,3:00,285.4,14.6,73.6,1372.528,,
01/01/09,3:30,285.2,14.6,73.8,1372.526,,WT elevation:
01/01/09,4:00,285.1,14.6,73.9,1372.525,,Sensor elev = 1369.674 m asl
01/01/09,4:30,285.1,14.6,73.9,1372.525,,WT elev = sensor elev + h (from pzhd column)
01/01/09,5:00,284.9,14.6,74.1,1372.523,,
01/01/09,5:30,285.4,14.6,73.6,1372.528,,
01/01/09,6:00,285.0,14.6,74.0,1372.524,,Dates with missing data (# 0.5 hr data points):
01/01/09,6:30,284.8,14.6,74.2,1372.522,,4/14 (4).
01/01/09,7:00,285.5,14.6,73.5,1372.529,,
01/01/09,7:30,285.0,14.6,74.0,1372.524,,
01/01/09,8:00,285.6,14.6,73.4,1372.530,,Dates w/missing T data:
01/01/09,8:30,284.8,14.6,74.2,1372.522,,"Jan 22, Feb 4, Apr 14, May 30,"
01/01/09,9:00,284.6,14.6,74.4,1372.520,,"Jun 24, 25, Sep 20, Oct 3, 20,"
01/01/09,9:30,284.5,14.6,74.5,1372.519,,"25, 26, 27, Nov 4, Dec 21."
01/01/09,10:00,284.7,14.6,74.3,1372.521,,
01/01/09,10:30,284.6,14.6,74.4,1372.520,,
01/01/09,11:00,284.1,14.6,74.9,1372.515,,
01/01/09,11:30,284.6,14.6,74.4,1372.520,,
01/01/09,12:00,284.9,14.6,74.1,1372.523,,
01/01/09,12:30,284.9,14.6,74.1,1372.523,,
01/01/09,13:00,285.4,14.6,73.6,1372.528,,
01/01/09,13:30,285.8,14.6,73.2,1372.532,,
01/01/09,14:00,286.5,14.6,72.5,1372.539,,
01/01/09,14:30,285.9,14.6,73.1,1372.533,,
01/01/09,15:00,285.4,14.6,73.6,1372.528,,
01/01/09,15:30,285.3,14.6,73.7,1372.527,,
01/01/09,16:00,285.1,14.6,73.9,1372.525,,
01/01/09,16:30,285.6,14.6,73.4,1372.530,,
01/01/09,17:00,285.0,14.6,74.0,1372.524,,
01/01/09,17:30,285.1,14.6,73.9,1372.525,,
01/01/09,18:00,285.2,14.6,73.8,1372.526,,
01/01/09,18:30,285.0,14.6,74.0,1372.524,,
01/01/09,19:00,285.2,14.6,73.8,1372.526,,
01/01/09,19:30,285.0,14.6,74.0,1372.524,,
01/01/09,20:00,285.0,14.6,74.0,1372.524,,
01/01/09,20:30,284.7,14.6,74.3,1372.521,,
01/01/09,21:00,285.1,14.6,73.9,1372.525,,
01/01/09,21:30,285.4,14.5,73.6,1372.528,,
01/01/09,22:00,285.1,14.6,73.9,1372.525,,
01/01/09,22:30,285.1,14.5,73.9,1372.525,,
01/01/09,23:00,285.0,14.6,74.0,1372.524,,
01/01/09,23:30,284.9,14.6,74.1,1372.523,,
01/02/09,0:00,284.5,14.5,74.5,1372.519,,
01/02/09,0:30,285.7,14.6,73.3,1372.531,,
01/02/09,1:00,284.9,14.6,74.1,1372.523,,
01/02/09,1:30,285.3,14.5,73.7,1372.527,,
01/02/09,2:00,285.8,14.5,73.2,1372.532,,
01/02/09,2:30,285.3,14.6,73.7,1372.527,,
01/02/09,3:00,285.2,14.6,73.8,1372.526,,
01/02/09,3:30,285.6,14.6,73.4,1372.530,,
01/02/09,4:00,285.9,14.5,73.1,1372.533,,
01/02/09,4:30,285.1,14.5,73.9,1372.525,,
01/02/09,5:00,285.4,14.5,73.6,1372.528,,
01/02/09,5:30,285.7,14.5,73.3,1372.531,,
01/02/09,6:00,286.4,14.5,72.6,1372.538,,
01/02/09,6:30,285.8,14.5,73.2,1372.532,,
01/02/09,7:00,285.3,14.5,73.7,1372.527,,
01/02/09,7:30,285.7,14.5,73.3,1372.531,,
01/02/09,8:00,285.6,14.6,73.4,1372.530,,
01/02/09,8:30,285.5,14.5,73.5,1372.529,,
01/02/09,9:00,286.0,14.5,73.0,1372.534,,
01/02/09,9:30,286.3,14.5,72.7,1372.537,,
01/02/09,10:00,285.7,14.5,73.3,1372.531,,
01/02/09,10:30,285.6,14.6,73.4,1372.530,,
01/02/09,11:00,285.1,14.5,73.9,1372.525,,
01/02/09,11:30,285.7,14.5,73.3,1372.531,,
01/02/09,12:00,285.7,14.5,73.3,1372.531,,
01/02/09,12:30,286.7,14.5,72.3,1372.541,,
01/02/09,13:00,286.8,14.5,72.2,1372.542,,
01/02/09,13:30,287.1,14.5,71.9,1372.545,,
01/02/09,14:00,287.4,14.5,71.6,1372.548,,
01/02/09,14:30,288.1,14.5,70.9,1372.555,,
01/02/09,15:00,287.9,14.5,71.1,1372.553,,
01/02/09,15:30,287.6,14.5,71.4,1372.550,,
01/02/09,16:00,287.9,14.5,71.1,1372.553,,
01/02/09,16:30,287.7,14.5,71.3,1372.551,,
01/02/09,17:00,287.8,14.5,71.2,1372.552,,
01/02/09,17:30,287.0,14.5,72.0,1372.544,,
01/02/09,18:00,287.6,14.5,71.4,1372.550,,
01/02/09,18:30,287.4,14.5,71.6,1372.548,,
01/02/09,19:00,287.2,14.5,71.8,1372.546,,
01/02/09,19:30,287.5,14.5,71.5,1372.549,,
01/02/09,20:00,286.5,14.5,72.5,1372.539,,
01/02/09,20:30,287.0,14.5,72.0,1372.544,,
01/02/09,21:00,286.7,14.5,72.3,1372.541,,
01/02/09,21:30,286.5,14.5,72.5,1372.539,,
01/02/09,22:00,286.6,14.5,72.4,1372.540,,
01/02/09,22:30,287.1,14.5,71.9,1372.545,,
01/02/09,23:00,286.7,14.5,72.3,1372.541,,
01/02/09,23:30,286.8,14.5,72.2,1372.542,,
01/03/09,0:00,286.5,14.5,72.5,1372.539,,
01/03/09,0:30,286.8,14.5,72.2,1372.542,,
01/03/09,1:00,286.6,14.5,72.4,1372.540,,
01/03/09,1:30,287.7,14.5,71.3,1372.551,,
01/03/09,2:00,287.3,14.5,71.7,1372.547,,
01/03/09,2:30,286.9,14.5,72.1,1372.543,,
01/03/09,3:00,286.9,14.5,72.1,1372.543,,
01/03/09,3:30,286.4,14.5,72.6,1372.538,,
01/03/09,4:00,286.4,14.5,72.6,1372.538,,
01/03/09,4:30,286.8,14.5,72.2,1372.542,,
01/03/09,5:00,287.1,14.5,71.9,1372.545,,
01/03/09,5:30,286.9,14.5,72.1,1372.543,,
01/03/09,6:00,287.0,14.5,72.0,1372.544,,
01/03/09,6:30,287.3,14.5,71.7,1372.547,,
01/03/09,7:00,287.1,14.5,71.9,1372.545,,
01/03/09,7:30,286.8,14.5,72.2,1372.542,,
01/03/09,8:00,287.2,14.5,71.8,1372.546,,
01/03/09,8:30,287.1,14.5,71.9,1372.545,,
01/03/09,9:00,286.8,14.5,72.2,1372.542,,
01/03/09,9:30,287.1,14.5,71.9,1372.545,,
01/03/09,10:00,286.4,14.5,72.6,1372.538,,
01/03/09,10:30,286.8,14.5,72.2,1372.542,,
01/03/09,11:00,285.8,14.5,73.2,1372.532,,
01/03/09,11:30,286.1,14.5,72.9,1372.535,,
01/03/09,12:00,286.2,14.5,72.8,1372.536,,
01/03/09,12:30,287.1,14.4,71.9,1372.545,,
01/03/09,13:00,286.9,14.5,72.1,1372.543,,
01/03/09,13:30,287.6,14.5,71.4,1372.550,,
01/03/09,14:00,287.5,14.5,71.5,1372.549,,
01/03/09,14:30,288.1,14.5,70.9,1372.555,,
01/03/09,15:00,288.1,14.5,70.9,1372.555,,
01/03/09,15:30,288.3,14.5,70.7,1372.557,,
01/03/09,16:00,288.2,14.5,70.8,1372.556,,
01/03/09,16:30,287.8,14.5,71.2,1372.552,,
01/03/09,17:00,288.1,14.5,70.9,1372.555,,
01/03/09,17:30,287.3,14.5,71.7,1372.547,,
01/03/09,18:00,287.0,14.5,72.0,1372.544,,
01/03/09,18:30,287.2,14.5,71.8,1372.546,,
01/03/09,19:00,287.2,14.5,71.8,1372.546,,
01/03/09,19:30,286.8,14.5,72.2,1372.542,,
01/03/09,20:00,286.5,14.5,72.5,1372.539,,
01/03/09,20:30,285.8,14.5,73.2,1372.532,,
01/03/09,21:00,286.5,14.5,72.5,1372.539,,
01/03/09,21:30,287.0,14.5,72.0,1372.544,,
01/03/09,22:00,286.3,14.5,72.7,1372.537,,
01/03/09,22:30,285.9,14.5,73.1,1372.533,,
01/03/09,23:00,286.1,14.5,72.9,1372.535,,
01/03/09,23:30,286.0,14.5,73.0,1372.534,,
01/04/09,0:00,286.1,14.5,72.9,1372.535,,
01/04/09,0:30,285.9,14.5,73.1,1372.533,,
01/04/09,1:00,286.4,14.5,72.6,1372.538,,
01/04/09,1:30,286.3,14.5,72.7,1372.537,,
01/04/09,2:00,286.7,14.5,72.3,1372.541,,
01/04/09,2:30,286.4,14.5,72.6,1372.538,,
01/04/09,3:00,286.4,14.5,72.6,1372.538,,
01/04/09,3:30,286.6,14.5,72.4,1372.540,,
01/04/09,4:00,287.2,14.5,71.8,1372.546,,
01/04/09,4:30,286.8,14.5,72.2,1372.542,,
01/04/09,5:00,287.4,14.5,71.6,1372.548,,
01/04/09,5:30,287.0,14.5,72.0,1372.544,,
01/04/09,6:00,286.7,14.5,72.3,1372.541,,
01/04/09,6:30,287.4,14.4,71.6,1372.548,,
01/04/09,7:00,286.8,14.5,72.2,1372.542,,
01/04/09,7:30,286.3,14.5,72.7,1372.537,,
01/04/09,8:00,286.1,14.5,72.9,1372.535,,
01/04/09,8:30,286.0,14.5,73.0,1372.534,,
01/04/09,9:00,286.6,14.5,72.4,1372.540,,
01/04/09,9:30,286.1,14.5,72.9,1372.535,,
01/04/09,10:00,285.4,14.5,73.6,1372.528,,
01/04/09,10:30,285.2,14.5,73.8,1372.526,,
01/04/09,11:00,286.0,14.5,73.0,1372.534,,
01/04/09,11:30,285.9,14.5,73.1,1372.533,,
01/04/09,12:00,286.4,14.4,72.6,1372.538,,
01/04/09,12:30,286.5,14.4,72.5,1372.539,,
01/04/09,13:00,286.8,14.4,72.2,1372.542,,
01/04/09,13:30,286.6,14.5,72.4,1372.540,,
01/04/09,14:00,287.0,14.5,72.0,1372.544,,
01/04/09,14:30,287.0,14.4,72.0,1372.544,,
01/04/09,15:00,287.3,14.4,71.7,1372.547,,
01/04/09,15:30,287.3,14.4,71.7,1372.547,,
01/04/09,16:00,287.4,14.5,71.6,1372.548,,
01/04/09,16:30,287.1,14.4,71.9,1372.545,,
01/04/09,17:00,287.0,14.5,72.0,1372.544,,
01/04/09,17:30,287.4,14.4,71.6,1372.548,,
01/04/09,18:00,287.3,14.4,71.7,1372.547,,
01/04/09,18:30,286.7,14.4,72.3,1372.541,,
01/04/09,19:00,286.7,14.5,72.3,1372.541,,
01/04/09,19:30,287.0,14.4,72.0,1372.544,,
01/04/09,20:00,286.8,14.4,72.2,1372.542,,
01/04/09,20:30,287.0,14.4,72.0,1372.544,,
01/04/09,21:00,286.5,14.4,72.5,1372.539,,
01/04/09,21:30,286.2,14.4,72.8,1372.536,,
01/04/09,22:00,285.9,14.4,73.1,1372.533,,
01/04/09,22:30,286.9,14.4,72.1,1372.543,,
01/04/09,23:00,286.5,14.4,72.5,1372.539,,
01/04/09,23:30,286.0,14.4,73.0,1372.534,,
01/05/09,0:00,286.1,14.4,72.9,1372.535,,
01/05/09,0:30,286.1,14.4,72.9,1372.535,,
01/05/09,1:00,286.3,14.4,72.7,1372.537,,
01/05/09,1:30,286.2,14.4,72.8,1372.536,,
01/05/09,2:00,286.7,14.4,72.3,1372.541,,
01/05/09,2:30,286.6,14.4,72.4,1372.540,,
01/05/09,3:00,287.8,14.4,71.2,1372.552,,
01/05/09,3:30,287.0,14.4,72.0,1372.544,,
01/05/09,4:00,287.2,14.4,71.8,1372.546,,
01/05/09,4:30,287.1,14.4,71.9,1372.545,,
01/05/09,5:00,287.0,14.4,72.0,1372.544,,
01/05/09,5:30,286.9,14.4,72.1,1372.543,,
01/05/09,6:00,287.2,14.4,71.8,1372.546,,
01/05/09,6:30,286.9,14.4,72.1,1372.543,,
01/05/09,7:00,287.2,14.4,71.8,1372.546,,
01/05/09,7:30,287.6,14.4,71.4,1372.550,,
01/05/09,8:00,287.0,14.4,72.0,1372.544,,
01/05/09,8:30,286.9,14.4,72.1,1372.543,,
01/05/09,9:00,287.3,14.4,71.7,1372.547,,
01/05/09,9:30,287.5,14.4,71.5,1372.549,,
01/05/09,10:00,286.9,14.4,72.1,1372.543,,
01/05/09,10:30,286.9,14.4,72.1,1372.543,,
01/05/09,11:00,286.7,14.4,72.3,1372.541,,
01/05/09,11:30,286.9,14.4,72.1,1372.543,,
01/05/09,12:00,287.6,14.4,71.4,1372.550,,
01/05/09,12:30,287.6,14.4,71.4,1372.550,,
01/05/09,13:00,288.3,14.4,70.7,1372.557,,
01/05/09,13:30,288.9,14.4,70.1,1372.563,,
01/05/09,14:00,289.7,14.4,69.3,1372.571,,
01/05/09,14:30,288.9,14.4,70.1,1372.563,,
01/05/09,15:00,289.1,14.4,69.9,1372.565,,
01/05/09,15:30,289.0,14.4,70.0,1372.564,,
01/05/09,16:00,289.2,14.4,69.8,1372.566,,
01/05/09,16:30,288.9,14.4,70.1,1372.563,,
01/05/09,17:00,288.8,14.4,70.2,1372.562,,
01/05/09,17:30,288.5,14.4,70.5,1372.559,,
01/05/09,18:00,288.5,14.4,70.5,1372.559,,
01/05/09,18:30,288.4,14.4,70.6,1372.558,,
01/05/09,19:00,288.1,14.4,70.9,1372.555,,
01/05/09,19:30,288.3,14.4,70.7,1372.557,,
01/05/09,20:00,287.7,14.4,71.3,1372.551,,
01/05/09,20:30,287.6,14.4,71.4,1372.550,,
01/05/09,21:00,287.3,14.4,71.7,1372.547,,
01/05/09,21:30,287.3,14.4,71.7,1372.547,,
01/05/09,22:00,287.2,14.4,71.8,1372.546,,
01/05/09,22:30,287.0,14.4,72.0,1372.544,,
01/05/09,23:00,287.9,14.4,71.1,1372.553,,
01/05/09,23:30,287.8,14.4,71.2,1372.552,,
01/06/09,0:00,287.4,14.4,71.6,1372.548,,
01/06/09,0:30,287.0,14.4,72.0,1372.544,,
01/06/09,1:00,286.7,14.4,72.3,1372.541,,
01/06/09,1:30,287.0,14.4,72.0,1372.544,,
01/06/09,2:00,287.2,14.4,71.8,1372.546,,
01/06/09,2:30,287.4,14.4,71.6,1372.548,,
01/06/09,3:00,287.1,14.4,71.9,1372.545,,
01/06/09,3:30,287.2,14.4,71.8,1372.546,,
01/06/09,4:00,286.8,14.4,72.2,1372.542,,
01/06/09,4:30,287.0,14.4,72.0,1372.544,,
01/06/09,5:00,287.0,14.4,72.0,1372.544,,
01/06/09,5:30,286.9,14.4,72.1,1372.543,,
01/06/09,6:00,286.7,14.4,72.3,1372.541,,
01/06/09,6:30,286.5,14.4,72.5,1372.539,,
01/06/09,7:00,286.2,14.4,72.8,1372.536,,
01/06/09,7:30,285.7,14.4,73.3,1372.531,,
01/06/09,8:00,285.0,14.4,74.0,1372.524,,
01/06/09,8:30,285.3,14.4,73.7,1372.527,,
01/06/09,9:00,284.3,14.4,74.7,1372.517,,
01/06/09,9:30,284.6,14.4,74.4,1372.520,,
01/06/09,10:00,284.7,14.4,74.3,1372.521,,
01/06/09,10:30,285.0,14.4,74.0,1372.524,,
01/06/09,11:00,284.2,14.4,74.8,1372.516,,
01/06/09,11:30,284.0,14.4,75.0,1372.514,,
01/06/09,12:00,285.0,14.4,74.0,1372.524,,
01/06/09,12:30,284.3,14.4,74.7,1372.517,,
01/06/09,13:00,285.0,14.4,74.0,1372.524,,
01/06/09,13:30,284.1,14.4,74.9,1372.515,,
01/06/09,14:00,284.7,14.4,74.3,1372.521,,
01/06/09,14:30,285.3,14.4,73.7,1372.527,,
01/06/09,15:00,285.3,14.4,73.7,1372.527,,
01/06/09,15:30,285.1,14.4,73.9,1372.525,,
01/06/09,16:00,284.8,14.4,74.2,1372.522,,
01/06/09,16:30,284.3,14.4,74.7,1372.517,,
01/06/09,17:00,284.5,14.4,74.5,1372.519,,
01/06/09,17:30,283.9,14.4,75.1,1372.513,,
01/06/09,18:00,283.9,14.3,75.1,1372.513,,
01/06/09,18:30,283.7,14.3,75.3,1372.511,,
01/06/09,19:00,283.7,14.4,75.3,1372.511,,
01/06/09,19:30,283.1,14.4,75.9,1372.505,,
01/06/09,20:00,283.3,14.3,75.7,1372.507,,
01/06/09,20:30,282.1,14.4,76.9,1372.495,,
01/06/09,21:00,282.5,14.4,76.5,1372.499,,
01/06/09,21:30,281.9,14.4,77.1,1372.493,,
01/06/09,22:00,281.8,14.3,77.2,1372.492,,
01/06/09,22:30,282.0,14.3,77.0,1372.494,,
01/06/09,23:00,282.6,14.4,76.4,1372.500,,
01/06/09,23:30,282.2,14.4,76.8,1372.496,,
01/07/09,0:00,282.9,14.3,76.1,1372.503,,
01/07/09,0:30,282.7,14.3,76.3,1372.501,,
01/07/09,1:00,282.6,14.3,76.4,1372.500,,
01/07/09,1:30,282.5,14.3,76.5,1372.499,,
01/07/09,2:00,282.6,14.3,76.4,1372.500,,
01/07/09,2:30,282.3,14.4,76.7,1372.497,,
01/07/09,3:00,282.7,14.3,76.3,1372.501,,
01/07/09,3:30,282.2,14.3,76.8,1372.496,,
01/07/09,4:00,282.2,14.3,76.8,1372.496,,
01/07/09,4:30,281.8,14.3,77.2,1372.492,,
01/07/09,5:00,282.2,14.3,76.8,1372.496,,
01/07/09,5:30,282.4,14.3,76.6,1372.498,,
01/07/09,6:00,281.9,14.3,77.1,1372.493,,
01/07/09,6:30,282.3,14.3,76.7,1372.497,,
01/07/09,7:00,282.6,14.3,76.4,1372.500,,
01/07/09,7:30,282.8,14.3,76.2,1372.502,,
01/07/09,8:00,282.0,14.3,77.0,1372.494,,
01/07/09,8:30,281.7,14.3,77.3,1372.491,,
01/07/09,9:00,281.9,14.3,77.1,1372.493,,
01/07/09,9:30,282.1,14.3,76.9,1372.495,,
01/07/09,10:00,281.4,14.3,77.6,1372.488,,
01/07/09,10:30,281.4,14.3,77.6,1372.488,,
01/07/09,11:00,281.1,14.3,77.9,1372.485,,
01/07/09,11:30,281.3,14.3,77.7,1372.487,,
01/07/09,12:00,281.2,14.3,77.8,1372.486,,
01/07/09,12:30,281.7,14.3,77.3,1372.491,,
01/07/09,13:00,282.2,14.3,76.8,1372.496,,
01/07/09,13:30,281.3,14.3,77.7,1372.487,,
01/07/09,14:00,281.9,14.3,77.1,1372.493,,
01/07/09,14:30,282.2,14.3,76.8,1372.496,,
01/07/09,15:00,281.9,14.3,77.1,1372.493,,
01/07/09,15:30,282.2,14.3,76.8,1372.496,,
01/07/09,16:00,281.2,14.3,77.8,1372.486,,
01/07/09,16:30,282.0,14.3,77.0,1372.494,,
01/07/09,17:00,282.0,14.3,77.0,1372.494,,
01/07/09,17:30,281.8,14.3,77.2,1372.492,,
01/07/09,18:00,281.4,14.3,77.6,1372.488,,
01/07/09,18:30,281.3,14.3,77.7,1372.487,,
01/07/09,19:00,281.6,14.3,77.4,1372.490,,
01/07/09,19:30,280.4,14.3,78.6,1372.478,,
01/07/09,20:00,279.9,14.3,79.1,1372.473,,
01/07/09,20:30,279.9,14.3,79.1,1372.473,,
01/07/09,21:00,279.7,14.3,79.3,1372.471,,
01/07/09,21:30,279.6,14.3,79.4,1372.470,,
01/07/09,22:00,279.7,14.3,79.3,1372.471,,
01/07/09,22:30,279.5,14.3,79.5,1372.469,,
01/07/09,23:00,279.4,14.3,79.6,1372.468,,
01/07/09,23:30,279.4,14.3,79.6,1372.468,,
01/08/09,0:00,279.1,14.3,79.9,1372.465,,
01/08/09,0:30,279.1,14.3,79.9,1372.465,,
01/08/09,1:00,278.6,14.3,80.4,1372.460,,
01/08/09,1:30,278.6,14.3,80.4,1372.460,,
01/08/09,2:00,279.2,14.3,79.8,1372.466,,
01/08/09,2:30,279.0,14.2,80.0,1372.464,,
01/08/09,3:00,278.8,14.3,80.2,1372.462,,
01/08/09,3:30,279.0,14.2,80.0,1372.464,,
01/08/09,4:00,278.5,14.2,80.5,1372.459,,
01/08/09,4:30,279.3,14.2,79.7,1372.467,,
01/08/09,5:00,279.4,14.2,79.6,1372.468,,
01/08/09,5:30,279.3,14.2,79.7,1372.467,,
01/08/09,6:00,279.7,14.2,79.3,1372.471,,
01/08/09,6:30,279.8,14.2,79.2,1372.472,,
01/08/09,7:00,278.5,14.2,80.5,1372.459,,
01/08/09,7:30,278.7,14.2,80.3,1372.461,,
01/08/09,8:00,279.3,14.2,79.7,1372.467,,
01/08/09,8:30,278.5,14.2,80.5,1372.459,,
01/08/09,9:00,278.5,14.2,80.5,1372.459,,
01/08/09,9:30,278.4,14.2,80.6,1372.458,,
01/08/09,10:00,278.8,14.2,80.2,1372.462,,
01/08/09,10:30,278.7,14.2,80.3,1372.461,,
01/08/09,11:00,278.4,14.2,80.6,1372.458,,
01/08/09,11:30,278.2,14.2,80.8,1372.456,,
01/08/09,12:00,278.1,14.2,80.9,1372.455,,
01/08/09,12:30,278.9,14.1,80.1,1372.463,,
01/08/09,13:00,278.8,14.2,80.2,1372.462,,
01/08/09,13:30,279.0,14.2,80.0,1372.464,,
01/08/09,14:00,278.9,14.1,80.1,1372.463,,
01/08/09,14:30,279.1,14.1,79.9,1372.465,,
01/08/09,15:00,279.8,14.1,79.2,1372.472,,
01/08/09,15:30,279.4,14.1,79.6,1372.468,,
01/08/09,16:00,278.7,14.1,80.3,1372.461,,
01/08/09,16:30,278.7,14.1,80.3,1372.461,,
01/08/09,17:00,279.5,14.1,79.5,1372.469,,
01/08/09,17:30,278.7,14.1,80.3,1372.461,,
01/08/09,18:00,279.1,14.1,79.9,1372.465,,
01/08/09,18:30,278.5,14.1,80.5,1372.459,,
01/08/09,19:00,278.6,14.1,80.4,1372.460,,
01/08/09,19:30,278.8,14.1,80.2,1372.462,,
01/08/09,20:00,278.6,14.1,80.4,1372.460,,
01/08/09,20:30,278.2,14.1,80.8,1372.456,,
01/08/09,21:00,278.6,14.1,80.4,1372.460,,
01/08/09,21:30,277.6,14.1,81.4,1372.450,,
01/08/09,22:00,277.9,14.1,81.1,1372.453,,
01/08/09,22:30,277.5,14.1,81.5,1372.449,,
01/08/09,23:00,277.5,14.1,81.5,1372.449,,
01/08/09,23:30,277.7,14.1,81.3,1372.451,,
01/09/09,0:00,277.8,14.1,81.2,1372.452,,
01/09/09,0:30,278.0,14.1,81.0,1372.454,,
01/09/09,1:00,277.3,14.1,81.7,1372.447,,
01/09/09,1:30,277.5,14.1,81.5,1372.449,,
01/09/09,2:00,277.4,14.1,81.6,1372.448,,
01/09/09,2:30,277.3,14.1,81.7,1372.447,,
01/09/09,3:00,278.2,14.1,80.8,1372.456,,
01/09/09,3:30,278.0,14.1,81.0,1372.454,,
01/09/09,4:00,277.9,14.1,81.1,1372.453,,
01/09/09,4:30,277.6,14.1,81.4,1372.450,,
01/09/09,5:00,277.5,14.1,81.5,1372.449,,
01/09/09,5:30,278.0,14.1,81.0,1372.454,,
01/09/09,6:00,277.9,14.1,81.1,1372.453,,
01/09/09,6:30,277.8,14.1,81.2,1372.452,,
01/09/09,7:00,277.8,14.1,81.2,1372.452,,
01/09/09,7:30,278.0,14.1,81.0,1372.454,,
01/09/09,8:00,277.5,14.1,81.5,1372.449,,
01/09/09,8:30,277.6,14.1,81.4,1372.450,,
01/09/09,9:00,277.8,14.1,81.2,1372.452,,
01/09/09,9:30,277.3,14.1,81.7,1372.447,,
01/09/09,10:00,277.2,14.1,81.8,1372.446,,
01/09/09,10:30,277.0,14.1,82.0,1372.444,,
01/09/09,11:00,277.1,14.1,81.9,1372.445,,
01/09/09,11:30,277.1,14.1,81.9,1372.445,,
01/09/09,12:00,278.6,14.1,80.4,1372.460,,
01/09/09,12:30,278.2,14.1,80.8,1372.456,,
01/09/09,13:00,278.1,14.1,80.9,1372.455,,
01/09/09,13:30,278.6,14.1,80.4,1372.460,,
01/09/09,14:00,278.5,14.1,80.5,1372.459,,
01/09/09,14:30,278.5,14.1,80.5,1372.459,,
01/09/09,15:00,279.6,14.1,79.4,1372.470,,
01/09/09,15:30,280.3,14.1,78.7,1372.477,,
01/09/09,16:00,279.9,14.1,79.1,1372.473,,
01/09/09,16:30,279.8,14.0,79.2,1372.472,,
01/09/09,17:00,279.3,14.0,79.7,1372.467,,
01/09/09,17:30,279.0,14.1,80.0,1372.464,,
01/09/09,18:00,279.2,14.0,79.8,1372.466,,
01/09/09,18:30,277.8,14.1,81.2,1372.452,,
01/09/09,19:00,277.1,14.1,81.9,1372.445,,
01/09/09,19:30,277.3,14.1,81.7,1372.447,,
01/09/09,20:00,277.7,14.1,81.3,1372.451,,
01/09/09,20:30,277.0,14.1,82.0,1372.444,,
01/09/09,21:00,276.8,14.1,82.2,1372.442,,
01/09/09,21:30,277.6,14.1,81.4,1372.450,,
01/09/09,22:00,277.2,14.1,81.8,1372.446,,
01/09/09,22:30,277.1,14.1,81.9,1372.445,,
01/09/09,23:00,277.4,14.1,81.6,1372.448,,
01/09/09,23:30,277.3,14.1,81.7,1372.447,,
01/10/09,0:00,277.5,14.1,81.5,1372.449,,
01/10/09,0:30,277.7,14.1,81.3,1372.451,,
01/10/09,1:00,278.8,14.1,80.2,1372.462,,
01/10/09,1:30,278.3,14.0,80.7,1372.457,,
01/10/09,2:00,278.5,14.1,80.5,1372.459,,
01/10/09,2:30,278.3,14.1,80.7,1372.457,,
01/10/09,3:00,278.7,14.1,80.3,1372.461,,
01/10/09,3:30,278.1,14.1,80.9,1372.455,,
01/10/09,4:00,278.7,14.0,80.3,1372.461,,
01/10/09,4:30,278.1,14.0,80.9,1372.455,,
01/10/09,5:00,278.7,14.0,80.3,1372.461,,
01/10/09,5:30,278.5,14.0,80.5,1372.459,,
01/10/09,6:00,278.5,14.0,80.5,1372.459,,
01/10/09,6:30,278.6,14.0,80.4,1372.460,,
01/10/09,7:00,278.5,14.0,80.5,1372.459,,
01/10/09,7:30,278.7,14.0,80.3,1372.461,,
01/10/09,8:00,279.2,14.0,79.8,1372.466,,
01/10/09,8:30,279.1,14.1,79.9,1372.465,,
01/10/09,9:00,279.3,14.0,79.7,1372.467,,
01/10/09,9:30,279.1,14.0,79.9,1372.465,,
01/10/09,10:00,279.1,14.0,79.9,1372.465,,
01/10/09,10:30,279.6,14.0,79.4,1372.470,,
01/10/09,11:00,280.3,14.0,78.7,1372.477,,
01/10/09,11:30,280.2,14.1,78.8,1372.476,,
01/10/09,12:00,281.0,14.0,78.0,1372.484,,
01/10/09,12:30,281.5,14.1,77.5,1372.489,,
01/10/09,13:00,282.4,14.0,76.6,1372.498,,
01/10/09,13:30,282.3,14.0,76.7,1372.497,,
01/10/09,14:00,282.0,14.0,77.0,1372.494,,
01/10/09,14:30,282.5,14.0,76.5,1372.499,,
01/10/09,15:00,282.2,14.0,76.8,1372.496,,
01/10/09,15:30,282.7,14.0,76.3,1372.501,,
01/10/09,16:00,282.8,14.0,76.2,1372.502,,
01/10/09,16:30,282.2,14.0,76.8,1372.496,,
01/10/09,17:00,282.4,14.0,76.6,1372.498,,
01/10/09,17:30,282.3,14.0,76.7,1372.497,,
01/10/09,18:00,282.2,14.0,76.8,1372.496,,
01/10/09,18:30,281.9,14.0,77.1,1372.493,,
01/10/09,19:00,281.6,14.0,77.4,1372.490,,
01/10/09,19:30,281.2,14.0,77.8,1372.486,,
01/10/09,20:00,281.0,14.0,78.0,1372.484,,
01/10/09,20:30,280.6,14.0,78.4,1372.480,,
01/10/09,21:00,280.5,14.0,78.5,1372.479,,
01/10/09,21:30,281.0,14.0,78.0,1372.484,,
01/10/09,22:00,280.8,14.0,78.2,1372.482,,
01/10/09,22:30,281.6,14.0,77.4,1372.490,,
01/10/09,23:00,281.8,14.0,77.2,1372.492,,
01/10/09,23:30,281.5,14.0,77.5,1372.489,,
01/11/09,0:00,282.2,14.0,76.8,1372.496,,
01/11/09,0:30,282.5,14.0,76.5,1372.499,,
01/11/09,1:00,282.5,14.0,76.5,1372.499,,
01/11/09,1:30,282.3,14.0,76.7,1372.497,,
01/11/09,2:00,282.5,14.0,76.5,1372.499,,
01/11/09,2:30,282.8,14.0,76.2,1372.502,,
01/11/09,3:00,282.9,14.0,76.1,1372.503,,
01/11/09,3:30,282.9,14.0,76.1,1372.503,,
01/11/09,4:00,282.7,14.0,76.3,1372.501,,
01/11/09,4:30,282.3,14.0,76.7,1372.497,,
01/11/09,5:00,282.1,14.0,76.9,1372.495,,
01/11/09,5:30,282.4,14.0,76.6,1372.498,,
01/11/09,6:00,283.2,14.0,75.8,1372.506,,
01/11/09,6:30,283.3,14.0,75.7,1372.507,,
01/11/09,7:00,282.7,14.0,76.3,1372.501,,
01/11/09,7:30,282.8,14.0,76.2,1372.502,,
01/11/09,8:00,283.3,14.0,75.7,1372.507,,
01/11/09,8:30,282.9,14.0,76.1,1372.503,,
01/11/09,9:00,282.5,14.0,76.5,1372.499,,
01/11/09,9:30,282.0,14.0,77.0,1372.494,,
01/11/09,10:00,283.1,14.0,75.9,1372.505,,
01/11/09,10:30,283.6,14.0,75.4,1372.510,,
01/11/09,11:00,284.0,14.0,75.0,1372.514,,
01/11/09,11:30,284.6,14.0,74.4,1372.520,,
01/11/09,12:00,284.7,14.0,74.3,1372.521,,
01/11/09,12:30,285.5,14.0,73.5,1372.529,,
01/11/09,13:00,286.1,14.0,72.9,1372.535,,
01/11/09,13:30,285.9,14.0,73.1,1372.533,,
01/11/09,14:00,285.8,13.9,73.2,1372.532,,
01/11/09,14:30,285.8,14.0,73.2,1372.532,,
01/11/09,15:00,285.7,13.9,73.3,1372.531,,
01/11/09,15:30,285.6,14.0,73.4,1372.530,,
01/11/09,16:00,285.8,14.0,73.2,1372.532,,
01/11/09,16:30,285.4,14.0,73.6,1372.528,,
01/11/09,17:00,285.3,14.0,73.7,1372.527,,
01/11/09,17:30,285.3,14.0,73.7,1372.527,,
01/11/09,18:00,284.4,14.0,74.6,1372.518,,
01/11/09,18:30,285.0,14.0,74.0,1372.524,,
01/11/09,19:00,284.5,14.0,74.5,1372.519,,
01/11/09,19:30,284.1,14.0,74.9,1372.515,,
01/11/09,20:00,284.2,14.0,74.8,1372.516,,
01/11/09,20:30,284.4,14.0,74.6,1372.518,,
01/11/09,21:00,284.8,14.0,74.2,1372.522,,
01/11/09,21:30,283.8,14.1,75.2,1372.512,,
01/11/09,22:00,284.6,14.1,74.4,1372.520,,
01/11/09,22:30,284.5,14.1,74.5,1372.519,,
01/11/09,23:00,284.9,14.1,74.1,1372.523,,
01/11/09,23:30,284.4,14.1,74.6,1372.518,,
01/12/09,0:00,284.7,14.1,74.3,1372.521,,
01/12/09,0:30,285.2,14.1,73.8,1372.526,,
01/12/09,1:00,285.1,14.1,73.9,1372.525,,
01/12/09,1:30,285.2,14.1,73.8,1372.526,,
01/12/09,2:00,285.4,14.1,73.6,1372.528,,
01/12/09,2:30,284.8,14.1,74.2,1372.522,,
01/12/09,3:00,284.9,14.1,74.1,1372.523,,
01/12/09,3:30,284.8,14.1,74.2,1372.522,,
01/12/09,4:00,285.2,14.1,73.8,1372.526,,
01/12/09,4:30,284.9,14.1,74.1,1372.523,,
01/12/09,5:00,285.5,14.1,73.5,1372.529,,
01/12/09,5:30,285.3,14.1,73.7,1372.527,,
01/12/09,6:00,284.9,14.1,74.1,1372.523,,
01/12/09,6:30,285.0,14.1,74.0,1372.524,,
01/12/09,7:00,284.4,14.1,74.6,1372.518,,
01/12/09,7:30,285.1,14.1,73.9,1372.525,,
01/12/09,8:00,285.5,14.1,73.5,1372.529,,
01/12/09,8:30,285.4,14.1,73.6,1372.528,,
01/12/09,9:00,284.6,14.1,74.4,1372.520,,
01/12/09,9:30,284.5,14.1,74.5,1372.519,,
01/12/09,10:00,285.0,14.1,74.0,1372.524,,
01/12/09,10:30,285.1,14.1,73.9,1372.525,,
01/12/09,11:00,285.4,14.1,73.6,1372.528,,